Lapse_Rate
5.0 5.1 5.1 5.3 5.6 5.8 5.6 5.6 5.5 5.3 5.5 5.8 5.6 5.8 5.9 6.1 6.3 6.3 6.1 6.4 6.9 6.9 6.7 6.6 6.3 6.2 5.7 5.4 5.1 5.2 4.9 5.2 5.2 5.4 5.6 5.6 5.8 5.4 5.5 4.9 4.9 5.2 5.9 5.1 5.0
5.1 5.2 5.3 5.3 5.4 5.5 5.8 5.7 5.7 5.4 5.3 5.5 5.7 5.7 6.0 6.2 6.4 6.2 6.2 6.5 6.8 6.9 6.9 6.9 6.4 6.2 5.7 5.0 5.1 5.3 5.5 5.4 6.0 5.5 5.6 5.4 5.7 5.7 5.6 5.0 4.9 5.2 4.6 4.8 5.1
5.3 5.3 5.4 5.4 5.4 5.6 5.5 5.6 5.5 5.6 5.4 5.3 5.6 5.8 5.9 6.2 6.4 6.1 6.4 6.5 6.6 6.8 6.8 6.2 6.0 5.6 5.5 5.0 5.5 5.9 5.7 5.9 5.9 6.0 5.9 5.8 5.4 5.7 5.2 5.1 5.6 5.5 4.8 5.0 5.1
5.3 5.5 5.6 5.6 5.6 5.6 5.6 5.7 5.8 5.5 5.3 5.3 5.4 5.7 5.9 6.1 6.3 6.3 6.6 6.7 6.8 6.6 6.7 6.5 6.4 6.2 5.6 5.1 5.5 5.7 6.0 6.0 6.0 6.2 6.0 5.8 5.2 5.3 5.1 5.7 5.2 5.3 4.6 4.9 4.9
5.4 5.6 5.7 5.7 5.7 5.6 5.7 5.8 5.8 5.7 5.4 5.2 5.2 5.5 5.9 6.2 6.2 6.3 6.6 6.8 7.0 7.0 6.8 6.8 6.9 6.7 6.3 5.4 5.5 5.8 6.3 6.0 5.9 5.9 5.9 5.7 5.5 5.4 5.5 5.6 4.6 4.9 4.6 5.3 4.6
5.4 5.7 5.7 5.7 5.7 5.8 5.7 5.6 5.5 5.5 5.4 5.2 5.0 5.4 5.8 6.1 6.1 6.3 6.4 6.8 7.1 7.2 7.1 6.9 7.1 6.8 6.1 5.9 5.7 5.9 5.6 6.0 5.9 6.0 5.7 5.7 5.5 5.4 5.3 5.3 4.6 4.9 4.5 4.8 4.5
5.5 5.6 5.7 5.7 5.8 5.8 5.8 5.7 5.5 5.4 5.2 5.3 5.1 5.2 5.6 5.7 6.2 6.6 6.5 6.7 7.1 7.2 7.5 7.4 6.6 6.5 6.2 5.9 6.0 5.9 6.1 5.9 5.9 5.9 6.1 5.2 5.3 5.2 5.4 5.1 4.7 4.9 4.9 4.7 4.7
5.6 5.7 5.8 5.7 5.8 5.8 5.8 5.7 5.5 5.5 5.3 5.2 5.3 5.5 5.3 6.0 6.4 6.5 6.6 6.7 7.0 7.3 7.0 6.8 6.5 6.2 6.3 6.2 5.6 5.7 6.5 6.3 5.8 6.2 5.9 5.8 5.7 5.0 5.3 5.4 5.1 5.3 4.7 4.8 4.9
5.6 5.8 5.7 5.7 5.8 5.8 5.6 5.5 5.5 5.5 5.4 5.4 5.4 5.8 5.7 6.4 7.0 6.1 6.6 6.7 7.0 7.0 7.0 6.4 6.5 6.6 6.0 6.2 6.2 5.9 6.2 6.4 5.6 5.6 5.9 6.1 5.8 5.5 5.4 5.4 5.6 5.4 5.2 5.2 5.0
5.6 5.8 5.8 5.8 5.6 5.4 5.3 5.3 5.4 5.5 5.5 5.3 5.5 5.9 6.1 5.8 6.0 6.4 6.3 6.6 6.9 6.8 6.4 6.5 6.5 6.8 6.3 6.1 6.3 6.4 6.7 6.5 6.6 6.4 6.4 6.7 6.4 5.8 5.4 5.7 5.4 5.5 5.4 5.2 5.3
5.5 5.7 5.8 6.0 5.7 5.3 5.2 5.5 5.5 5.5 5.5 5.6 5.4 5.6 5.8 5.5 5.9 6.5 6.3 6.3 6.0 6.3 6.5 6.6 6.5 6.8 6.9 6.6 7.1 7.1 6.6 6.6 6.9 6.6 6.6 5.9 6.3 6.2 5.4 5.5 5.4 5.3 5.4 5.4 5.1
5.6 5.7 5.8 5.8 5.8 5.7 5.4 5.6 5.4 5.3 6.0 6.0 6.0 5.9 5.8 5.9 5.8 6.0 5.8 5.8 5.7 6.2 6.6 6.5 6.8 7.2 7.0 7.0 7.4 7.2 6.9 7.0 6.7 6.0 6.2 6.0 6.2 5.9 5.6 5.8 5.7 5.6 5.6 5.7 5.6
5.6 5.7 5.7 5.8 5.7 5.5 5.5 5.6 5.6 5.6 5.9 6.4 6.4 6.3 6.2 6.0 6.4 6.2 5.9 6.0 6.1 6.0 6.1 6.5 7.8 7.2 7.2 7.1 7.3 7.6 7.2 6.9 7.5 6.7 6.1 6.7 6.3 6.0 5.9 5.6 5.5 5.8 5.8 5.8 5.7
5.8 5.7 5.7 5.8 5.7 5.7 5.5 5.5 5.8 5.9 6.2 7.1 7.0 6.8 6.7 6.5 6.3 6.4 6.3 6.5 6.3 6.2 6.2 6.4 7.6 7.0 6.9 7.0 7.2 7.5 7.9 7.6 8.0 7.7 6.9 6.8 5.4 6.2 6.0 5.6 5.4 6.1 5.8 5.9 5.7
6.1 6.0 5.8 5.8 6.1 5.9 5.9 6.0 6.3 6.5 6.1 7.7 8.1 7.5 7.1 7.0 6.9 6.8 6.8 6.7 6.8 7.0 6.5 6.6 7.4 7.2 7.0 7.0 7.4 7.8 8.5 8.4 8.5 7.4 7.4 6.2 6.4 5.4 5.1 5.4 5.5 5.8 5.8 5.7 5.6
6.4 6.3 6.2 6.2 6.2 6.5 6.5 6.7 7.0 6.8 7.0 8.0 8.6 8.7 8.1 7.4 7.2 7.1 7.3 7.2 7.3 7.0 7.0 7.0 7.7 7.5 7.7 7.6 7.6 8.4 8.0 8.1 7.5 7.6 7.0 7.0 6.8 5.7 6.3 6.1 5.8 5.8 5.8 5.7 5.6
6.8 6.6 6.5 6.5 6.6 6.7 7.0 7.3 7.4 7.6 8.1 8.6 8.7 8.3 8.6 8.2 7.8 7.6 7.3 7.4 7.0 7.0 7.2 7.3 7.3 7.7 7.8 7.7 7.8 8.4 8.4 7.6 7.2 6.8 6.6 7.6 7.4 7.7 7.6 6.8 6.9 6.1 6.2 6.1 5.8
7.0 7.0 6.8 6.8 6.9 7.0 7.4 7.8 7.6 7.8 8.2 8.5 8.5 8.6 8.8 8.6 9.0 8.2 7.9 8.0 8.1 7.7 7.5 7.4 7.7 7.9 8.2 8.1 8.0 8.6 8.9 8.5 7.3 6.9 7.6 8.1 7.2 7.3 7.8 7.0 6.5 6.7 6.5 6.0 6.2
7.1 7.2 7.1 7.0 7.5 7.6 7.7 7.9 7.8 7.8 8.0 8.1 8.5 8.6 8.7 8.8 8.9 9.1 8.4 8.7 8.7 8.8 8.1 7.8 7.9 8.6 8.3 8.3 8.4 8.7 9.0 9.0 8.8 8.5 8.0 6.4 5.9 6.2 7.1 6.8 6.8 6.7 6.7 6.3 6.1
7.2 7.3 7.1 7.5 7.9 8.0 7.9 7.8 7.9 8.0 7.7 7.9 8.2 8.3 7.9 8.5 8.4 8.5 8.5 8.2 8.5 8.2 8.3 8.0 7.8 8.4 8.8 8.7 8.4 8.6 8.8 8.8 8.7 7.5 6.9 5.9 6.3 6.0 6.0 6.6 6.5 6.5 6.8 6.4 6.7
7.4 7.4 7.2 7.5 7.9 7.5 8.0 8.1 7.8 7.9 7.8 8.0 8.2 8.2 7.9 8.0 8.0 7.9 8.2 8.3 8.3 8.5 8.1 8.2 7.9 8.4 8.5 8.8 8.4 8.1 8.3 8.5 8.5 8.5 6.7 6.1 6.1 6.1 6.3 6.4 6.2 6.1 6.7 6.9 6.8
7.6 7.5 7.2 7.6 7.6 8.1 8.5 8.0 7.8 7.8 8.2 7.8 7.9 7.8 7.8 7.8 8.0 8.1 8.0 7.9 7.9 8.0 8.0 8.0 7.8 7.9 8.5 8.7 8.5 8.3 8.6 8.6 8.4 8.4 7.7 6.8 6.0 6.0 6.0 6.0 6.1 6.3 6.1 6.6 6.2
7.7 7.8 7.4 7.7 8.1 8.5 8.3 8.2 8.0 8.2 8.6 8.3 8.1 8.0 7.8 8.1 7.8 7.7 7.9 7.9 7.7 7.7 7.9 7.8 7.8 8.3 8.9 8.9 8.5 8.5 8.4 8.6 8.3 8.3 8.2 6.9 5.8 6.0 5.7 5.7 5.5 6.0 6.3 6.3 6.2
7.7 7.8 7.6 8.0 8.3 8.4 8.5 8.4 8.4 8.5 8.3 8.3 8.1 8.1 7.9 8.3 8.1 7.6 7.5 7.4 7.6 7.8 7.9 7.8 7.6 7.8 7.6 8.1 7.8 7.6 8.4 8.7 8.5 8.5 7.5 7.5 5.7 5.2 5.3 5.7 6.2 6.5 5.4 5.5 6.5
7.6 7.5 7.8 8.2 8.3 8.2 8.5 8.3 8.1 8.3 8.1 8.0 8.1 8.0 7.9 8.1 7.9 7.8 7.9 7.6 7.7 7.9 7.7 7.8 7.8 7.8 8.0 8.0 7.9 7.8 8.2 8.5 8.7 8.7 8.2 6.9 7.4 6.3 5.8 5.5 5.2 5.6 5.7 5.7 7.0
7.7 7.7 8.0 7.9 8.0 8.1 8.3 8.3 8.0 8.0 8.1 7.9 7.9 8.2 8.1 8.2 8.1 8.1 8.0 8.0 7.6 7.8 7.8 7.7 7.6 7.5 7.9 7.9 7.7 7.7 8.0 8.6 8.5 8.4 8.1 7.3 6.4 6.3 5.9 5.6 5.3 5.3 5.1 5.4 6.6
7.5 7.8 7.8 7.6 7.8 7.7 7.8 8.0 7.8 7.5 7.6 7.6 7.6 7.9 8.3 8.1 7.9 7.9 8.0 7.8 7.6 8.0 7.9 7.7 7.6 7.5 7.4 7.7 7.8 8.0 7.9 8.1 8.3 8.0 7.8 6.9 7.3 5.7 5.9 5.5 5.6 5.1 5.2 5.9 6.0
Wind_Speed
15 15 14 14 15 15 14 13 13 12 13 13 13 13 13 14 15 2 6 11 9 11 6 4 6 4 3 3 6 3 2 5 8 11 7 7 7 5 5 13 14 7 14 20 23
15 15 15 15 14 15 15 14 14 13 13 13 13 13 13 13 3 9 10 15 15 16 4 7 6 6 3 3 4 4 4 4 16 14 12 11 5 7 4 10 5 20 17 22 22
15 15 16 16 15 14 14 14 14 14 14 12 13 13 12 11 3 7 11 23 20 11 10 5 0 3 5 3 3 3 2 10 7 12 20 15 10 6 8 7 16 22 23 23 22
17 16 16 16 15 15 15 14 15 15 13 13 12 12 13 2 4 3 12 27 14 11 5 4 3 4 5 6 4 4 7 4 8 12 16 14 10 8 13 11 17 22 23 22 20
17 17 16 16 16 16 16 16 14 14 14 13 11 10 4 1 9 4 6 22 10 6 7 6 6 5 4 6 7 7 7 8 15 12 12 14 9 6 9 15 15 19 21 22 18
18 18 17 16 16 16 16 15 14 13 13 12 9 6 1 2 5 10 9 10 7 8 7 7 6 8 7 9 8 9 6 12 10 11 12 11 8 9 5 5 18 19 21 17 19
18 18 18 17 16 15 15 15 13 12 10 8 5 4 2 12 2 8 8 6 5 7 6 12 7 2 5 5 12 13 7 11 15 12 13 15 5 11 7 3 17 16 15 16 14
19 18 16 16 16 16 15 15 14 11 8 6 4 3 7 6 13 3 5 3 7 6 7 2 3 6 5 7 1 5 5 5 11 12 12 4 6 14 10 6 14 14 10 12 18
19 18 17 16 17 16 15 15 14 10 7 7 3 2 9 11 7 10 10 5 6 5 6 8 1 6 2 2 5 1 3 4 13 6 11 2 7 14 11 9 16 14 8 12 19
18 17 16 17 16 16 17 15 6 5 2 7 6 3 5 4 3 5 8 8 4 3 2 3 3 2 3 5 4 3 4 2 9 3 8 1 7 14 11 9 15 12 7 15 18
18 17 16 13 11 13 9 3 3 1 3 8 7 5 7 4 2 4 6 6 2 4 5 4 3 5 6 6 6 5 4 7 5 2 7 9 7 13 6 8 10 10 7 14 18
18 16 16 15 10 6 2 2 7 3 8 15 14 8 11 0 4 7 9 6 4 5 2 5 4 7 4 7 7 4 1 7 12 10 5 4 6 8 2 5 12 9 6 11 13
20 19 17 14 12 1 4 7 7 8 3 8 7 6 6 8 7 8 9 6 5 4 4 6 6 7 6 8 8 7 5 8 10 11 4 12 3 2 9 5 7 4 6 10 15
19 21 18 24 2 2 5 7 6 6 4 6 3 6 4 9 3 8 8 5 2 8 5 6 7 6 6 8 6 7 8 11 24 10 5 2 4 4 6 11 9 6 5 11 14
17 17 17 8 4 2 7 7 9 4 4 11 3 3 4 8 4 4 7 3 5 7 6 8 4 7 8 13 8 11 8 13 21 5 10 6 5 3 6 12 16 6 7 6 9
17 13 13 2 2 9 13 9 4 5 2 7 3 7 3 2 2 1 8 1 2 2 4 8 7 7 10 11 12 12 4 6 6 4 1 9 5 4 8 17 15 10 6 7 7
19 12 5 4 5 7 4 4 5 3 6 6 4 5 5 5 4 5 5 5 5 2 4 6 9 9 6 6 3 4 7 2 0 1 6 14 4 6 14 21 22 15 13 6 5
26 18 8 5 7 3 4 5 4 2 5 5 4 9 4 4 3 3 8 4 4 4 1 2 8 6 4 9 8 4 8 6 5 4 2 12 4 4 4 5 4 2 4 4 6
26 2 2 5 14 3 5 5 3 2 4 4 8 7 7 7 5 5 6 3 4 4 7 3 6 6 1 6 8 3 2 6 5 3 4 3 2 7 8 5 6 3 2 3 4
3 4 4 6 15 4 5 4 4 5 2 2 2 3 4 8 5 7 8 3 7 7 5 6 4 4 7 3 3 8 4 4 3 4 2 3 5 3 5 6 10 7 6 6 6
2 3 4 12 5 5 3 4 3 7 6 2 4 3 4 4 4 2 2 5 3 9 9 4 3 8 2 3 6 4 3 5 4 4 6 4 2 4 11 11 10 8 6 7 8
3 2 3 4 4 3 3 4 3 5 2 3 2 5 4 3 4 2 1 4 8 6 7 4 4 1 5 9 4 5 6 5 4 2 3 4 2 10 15 13 10 7 6 7 9
3 3 1 6 3 2 3 3 6 2 2 2 4 5 3 4 5 3 1 6 13 5 2 4 3 3 8 7 7 4 2 6 4 2 5 5 5 7 12 15 11 6 5 5 9
2 3 4 4 2 6 3 3 1 4 3 2 1 5 3 2 4 4 4 3 14 2 5 3 3 5 2 4 1 6 7 4 6 4 4 3 14 12 12 11 15 10 8 9 10
2 3 3 1 4 4 7 6 6 5 7 9 6 2 6 2 3 1 2 3 9 3 3 2 3 4 4 6 5 3 8 4 3 6 6 16 17 18 14 13 13 11 11 9 10
3 3 5 4 5 5 6 4 7 3 4 5 7 12 5 4 1 2 3 4 3 4 7 4 2 5 6 12 11 6 14 8 8 8 14 16 14 16 16 16 13 13 12 11 10
3 3 3 6 2 6 3 3 5 3 6 8 4 4 6 3 3 3 3 2 4 4 5 3 3 3 2 10 7 7 7 7 4 6 22 16 15 20 19 17 16 14 13 14 12
Wind_Direction
334 332 332 333 333 330 329 327 325 326 328 327 327 329 331 326 313 187 234 223 185 219 120 153 204 225 194 255 247 119 277 140 152 178 138 186 128 334 12 129 143 131 145 142 139
333 329 328 328 327 326 325 323 321 323 325 325 324 324 329 332 292 250 235 206 225 193 190 183 196 171 190 227 221 151 285 179 170 178 159 168 142 166 140 140 118 121 140 138 138
327 325 322 322 321 320 318 317 316 315 317 321 321 321 324 324 309 247 211 202 201 208 197 179 306 174 191 192 118 136 280 319 172 151 148 154 146 164 138 131 166 145 155 149 141
327 324 321 319 318 316 314 313 312 311 313 313 317 319 316 256 234 271 320 188 177 174 170 171 185 189 212 169 137 100 230 276 130 138 144 165 153 155 174 185 186 146 161 149 151
325 323 321 318 316 313 311 311 309 307 308 309 312 316 328 77 251 270 107 163 152 158 185 185 182 176 197 163 133 168 200 295 252 158 140 137 147 148 125 146 182 142 159 157 160
325 322 319 314 312 309 308 307 305 302 304 305 300 300 254 256 242 154 128 146 162 163 192 183 200 195 271 162 182 174 130 158 186 150 139 123 127 130 222 193 159 142 158 164 150
327 324 322 319 316 312 310 306 302 299 299 293 290 248 271 239 224 141 144 181 173 174 174 215 218 244 351 313 219 150 151 161 158 153 138 128 120 160 174 151 163 161 158 175 151
332 329 326 324 320 314 309 302 297 292 284 263 255 249 243 250 240 301 211 203 197 212 215 272 202 262 198 269 319 167 88 157 170 165 161 146 148 167 189 206 183 174 170 164 151
332 330 329 325 318 311 309 304 295 283 267 184 173 217 268 305 177 218 173 185 187 236 243 261 318 216 269 68 0 314 173 168 149 319 163 8 112 185 195 211 179 183 183 140 152
334 331 329 327 320 320 313 298 273 309 168 174 260 304 273 259 198 153 190 156 175 167 354 207 171 211 58 82 218 209 183 180 147 136 63 11 127 161 189 192 186 187 160 151 155
337 331 325 325 324 328 339 50 17 338 240 197 193 241 269 260 179 207 177 142 192 118 174 203 102 226 222 182 220 270 354 95 78 107 63 316 145 175 182 194 197 189 160 153 166
335 332 324 321 318 319 298 177 223 120 297 228 236 244 266 322 232 230 121 153 157 202 181 16 212 230 235 266 262 272 155 95 93 144 95 47 85 173 193 232 199 183 159 160 161
336 328 319 314 306 265 189 230 249 54 313 290 195 204 227 148 225 211 135 172 156 190 182 171 231 212 226 264 282 268 202 184 129 107 101 93 58 289 232 255 186 171 159 174 154
334 328 327 319 258 316 248 253 287 137 37 281 200 267 215 163 190 182 188 145 178 193 208 219 253 232 231 254 211 270 217 149 147 156 174 192 187 229 261 236 194 177 174 180 169
323 323 326 351 293 278 248 4 327 75 19 334 192 254 101 134 147 239 180 173 208 187 117 241 222 210 220 234 214 240 241 174 171 90 110 219 106 146 237 218 211 206 203 165 171
314 311 313 155 237 242 332 323 43 48 279 331 5 333 88 300 232 110 174 123 148 235 284 244 252 171 219 246 232 240 125 66 107 120 109 190 149 188 180 199 212 215 209 166 175
310 301 269 294 236 62 337 27 45 108 357 331 352 354 343 240 259 138 171 194 167 111 289 292 267 252 222 258 323 147 84 53 28 72 223 177 170 205 199 180 182 210 196 132 65
312 303 234 223 272 355 31 58 78 167 287 300 313 306 227 184 29 333 165 202 225 131 7 275 310 190 222 188 193 161 147 156 147 172 225 159 233 299 158 135 164 123 94 103 118
317 119 231 244 208 151 75 52 205 257 239 307 329 47 351 33 71 29 29 297 203 139 186 230 268 315 188 230 137 267 140 193 138 164 77 118 71 37 79 71 68 120 137 230 229
354 338 255 173 148 75 76 198 217 218 269 293 17 68 42 355 48 30 30 356 339 333 246 192 253 285 313 185 40 145 170 47 15 140 46 284 154 157 132 107 88 84 66 57 12
15 15 273 123 88 58 135 219 257 261 225 235 337 90 40 109 81 60 233 299 314 322 347 33 105 295 340 169 162 39 72 69 110 126 173 171 57 212 138 119 104 88 66 62 57
354 11 253 46 54 96 141 196 253 242 273 17 55 61 97 98 69 77 237 230 312 307 321 322 126 302 255 296 149 143 157 110 116 263 108 119 100 114 102 95 99 91 86 66 60
339 271 257 104 119 326 276 296 224 133 290 63 341 78 155 141 102 225 213 293 293 318 305 309 15 17 349 354 5 21 198 131 119 90 184 120 138 134 121 126 122 114 96 83 67
76 355 325 41 133 133 196 215 279 51 39 40 99 93 305 355 84 193 165 265 284 166 233 96 80 114 170 229 209 335 315 118 124 115 154 136 142 153 142 135 133 122 118 108 95
78 277 219 338 349 81 81 70 56 25 6 9 11 95 187 116 72 359 34 17 240 277 155 95 76 13 321 328 278 268 326 217 145 171 130 160 148 160 138 132 129 124 118 109 105
58 31 349 331 352 64 22 25 91 30 57 356 67 47 41 94 132 144 60 65 265 348 2 20 322 41 343 349 354 20 3 131 142 90 93 131 114 139 138 129 131 126 126 120 114
314 327 102 302 33 80 312 55 52 44 30 75 31 76 42 360 282 255 186 194 237 15 355 73 96 91 229 328 345 31 338 357 61 122 137 146 150 143 143 142 142 133 119 104 100